NOAA 17 DEB

Satellite information

Favourite Embed

Satellite Type and Status

DEBRISDECAYED

Key statistics

Satellite NOAA 17 DEB at a glance.

Uptime

8299

Days in orbit

Revolutions

≈ 15.2

Per day

Orbit

SSO

Sun Synchronous Orbit

Inclination

98.8

Latest

Satellite identification and parameters

Extended collection of information and parameters for NOAA 17 DEB.

Object identification

Identified? True

Debris? True

Object name: NOAA 17 DEB

International designator: 2002-032V

Object number (NORAD): 48180

Object ID (CCSDS): 48180

Country: UNITED STATES OF AMERICA (US)

Current information (Y/N): Y

RCS size: SMALL

Orbital parameters

Decay date: March 14, 2025

Period: 94.747 minutes

Inclination: 98.7728 deg

SMA: 6884.484 km

Apoapsis: 516.019 km

Periapsis: 496.679 km

RAAN: 51.6619 deg

Eccentricy: 0.0014046

Argument of periapsis: 126.7122 deg

Mean anomaly: 233.5401 deg

Mean motion: 15.19832195 rev/day

Mean motion (dot): 0.00597005 rev/day2

B* drag term: 0.02596 1/REarth

Two-line elements (TLE)

Creation date: Feb. 10, 2025, 5:40 p.m.

Reference frame: TEME

Reference center: EARTH

Epoch: Feb. 10, 2025, 5:44 a.m. UTC

TLE line 0: 0 NOAA 17 DEB

TLE line 1: 1 48180U 02032V 25041.23953158 .00597005 00000-0 25960-1 0 9995

TLE line 2: 2 48180 98.7728 51.6619 0014046 126.7122 233.5401 15.19832195 36852

Live tracking on map

Satellite NOAA 17 DEB has decayed and is no longer in orbit. No tracking available.

In-orbit conjunctions

Satellite NOAA 17 DEB has decayed and is no longer in orbit. No conjunctions available.

Associated space launch

NOAA M carried weather imagers and microwave and infrared sounders, as well as a SARSAT search-and-rescue package. It had an on-orbit mass of 1475 kg.

NOAA 17 DEB was lifted into orbit during the mission ‘Titan II SLV | NOAA 17’, on board a Titan II SLV space rocket.

The launch took place on June 24, 2002, 6:23 p.m. from Space Launch Complex 4W.

For more information about the launch, click the button.

Launch to space Titan II SLV | NOAA 17
Titan II SLV | NOAA 17

Agency: N/A

Status: Launch Successful

Launch date: June 24, 2002, 6:23 p.m. UTC

Rocket: Titan II SLV

Launch pad: Space Launch Complex 4W

Location: Vandenberg SFB, CA, USA

...

Latest news about this satellite

There are no fresh news available about this satellite. Check back as we update our databases every day.


Newsletter sign-up

Weekly statistics, charts and insights to help you stay on top of the space industry.